Shreveport Downtown, LA

5:29 PM CDT on August 20, 2017 (GMT -0500)
Shreveport Downtown

Weather History for KDTN - October, 2013

Change the Weather History Date:

Sunday, October 27, 2013

  Actual Average (KBAD) Record (KBAD)
Temperature  
Mean Temperature 64 °F -  
Max Temperature 71 °F 72 °F 89 °F (2010)
Min Temperature 57 °F 52 °F 37 °F (1997)
Degree Days  
Heating Degree Days 2    
Growing Degree Days 14 (Base 50)    
Moisture  
Dew Point 57 °F    
Average Humidity 82    
Maximum Humidity 94    
Minimum Humidity 63    
Precipitation  
Precipitation 0.02 in - - ()
Sea Level Pressure  
Sea Level Pressure 30.06 in    
Wind  
Wind Speed 4 mph (NW)    
Max Wind Speed 9 mph    
Max Gust Speed -    
Visibility 10 miles    
Events Rain    
Averages and records for this station are not official NWS values.
T = Trace of Precipitation, MM = Missing Value Source: NWS Daily Summary

Daily Weather History Graph

Daily Weather History Graph

Search for Another Location

Airport or City:

Trip Planner

Search our weather history database for the weather conditions in past years. The results will help you decide how hot, cold, wet, or windy it might be!

Date:

Astronomy

Oct. 27, 2013 Rise Set
Actual Time 7:28 AM CDT 6:28 PM CDT
Civil Twilight 7:03 AM CDT 6:53 PM CDT
Nautical Twilight 6:34 AM CDT 7:22 PM CDT
Astronomical Twilight 6:05 AM CDT 7:51 PM CDT
Moon 12:48 AM CDT (10/27) 2:17 PM CDT (10/27)
Length of Visible Light 11h 50m
Length of Day
11h 00m
Last Quarter, 43% of the Moon is Illuminated
Oct 27
Last Quarter
Nov 3
New
Nov 9
First Quarter
Nov 17
Full
Nov 25
Last Quarter

Hourly Weather History & Observations

Time (CDT) Temp. Dew Point Humidity Pressure Visibility Wind Dir Wind Speed Gust Speed Precip Events Conditions
12:53 AM 60.1 °F 55.9 °F 86% 30.12 in 10.0 mi WNW 4.6 mph - 0.00 in Rain Light Rain
1:53 AM 57.9 °F 55.9 °F 93% 30.08 in 10.0 mi Calm Calm - 0.02 in Rain Light Rain
2:22 AM 57.2 °F 55.4 °F 94% 30.05 in 9.0 mi Calm Calm - 0.00 in   Overcast
2:53 AM 57.9 °F 55.9 °F 93% 29.99 in 9.0 mi SSE 8.1 mph - 0.00 in   Mostly Cloudy
3:53 AM 60.1 °F 57.9 °F 93% 30.01 in 9.0 mi West 5.8 mph - N/A   Partly Cloudy
4:09 AM 60.8 °F 57.2 °F 88% 30.02 in 8.0 mi West 4.6 mph - N/A   Scattered Clouds
4:17 AM 60.8 °F 57.2 °F 88% 30.03 in 7.0 mi WNW 5.8 mph - N/A   Mostly Cloudy
4:53 AM 59.0 °F 57.0 °F 93% 30.03 in 7.0 mi WSW 6.9 mph - N/A   Overcast
5:53 AM 59.0 °F 57.0 °F 93% 30.05 in 9.0 mi NW 5.8 mph - N/A   Overcast
6:53 AM 59.0 °F 57.0 °F 93% 30.06 in 9.0 mi WNW 5.8 mph - N/A   Overcast
7:28 AM 59.0 °F 57.2 °F 94% 30.06 in 10.0 mi WNW 6.9 mph - N/A   Overcast
7:53 AM 59.0 °F 57.0 °F 93% 30.07 in 10.0 mi West 5.8 mph - N/A   Overcast
8:08 AM 60.8 °F 57.2 °F 88% 30.08 in 10.0 mi West 6.9 mph - N/A   Overcast
8:53 AM 60.1 °F 57.0 °F 90% 30.09 in 10.0 mi WNW 6.9 mph - N/A   Overcast
9:05 AM 60.8 °F 57.2 °F 88% 30.10 in 10.0 mi NW 9.2 mph - N/A   Overcast
9:53 AM 61.0 °F 57.9 °F 90% 30.11 in 10.0 mi NW 8.1 mph - N/A   Overcast
10:53 AM 62.1 °F 57.0 °F 84% 30.12 in 10.0 mi NW 4.6 mph - N/A   Overcast
11:53 AM 64.0 °F 57.0 °F 78% 30.12 in 10.0 mi NNW 6.9 mph - N/A   Overcast
12:22 PM 66.2 °F 57.2 °F 73% 30.11 in 10.0 mi NW 4.6 mph - N/A   Mostly Cloudy
12:49 PM 68.0 °F 57.2 °F 68% 30.10 in 10.0 mi NNW 4.6 mph - N/A   Mostly Cloudy
12:53 PM 66.9 °F 57.0 °F 70% 30.09 in 10.0 mi North 3.5 mph - N/A   Mostly Cloudy
1:37 PM 69.8 °F 57.2 °F 64% 30.07 in 10.0 mi WNW 6.9 mph - N/A   Scattered Clouds
1:53 PM 69.1 °F 57.0 °F 65% 30.06 in 10.0 mi Variable 4.6 mph - N/A   Scattered Clouds
2:26 PM 69.8 °F 57.2 °F 64% 30.05 in 10.0 mi WNW 5.8 mph - N/A   Mostly Cloudy
2:53 PM 70.0 °F 57.0 °F 63% 30.04 in 10.0 mi NNW 4.6 mph - N/A   Overcast
3:00 PM 69.8 °F 57.2 °F 64% 30.05 in 10.0 mi NNW 5.8 mph - N/A   Overcast
3:53 PM 68.0 °F 57.0 °F 68% 30.04 in 10.0 mi NW 3.5 mph - N/A   Overcast
4:53 PM 68.0 °F 57.0 °F 68% 30.04 in 10.0 mi Calm Calm - N/A   Overcast
5:30 PM 68.0 °F 57.2 °F 68% 30.04 in 10.0 mi North 3.5 mph - N/A   Overcast
5:53 PM 68.0 °F 57.9 °F 70% 30.04 in 10.0 mi Calm Calm - N/A   Overcast
6:12 PM 66.2 °F 57.2 °F 73% 30.03 in 10.0 mi Calm Calm - N/A   Overcast
6:19 PM 66.2 °F 57.2 °F 73% 30.03 in 10.0 mi Calm Calm - N/A   Overcast
6:53 PM 64.9 °F 59.0 °F 81% 30.04 in 10.0 mi Calm Calm - N/A   Overcast
7:53 PM 64.0 °F 59.0 °F 84% 30.04 in 10.0 mi Calm Calm - N/A   Overcast
8:53 PM 61.0 °F 57.9 °F 90% 30.05 in 10.0 mi Calm Calm - N/A   Clear
9:53 PM 59.0 °F 57.0 °F 93% 30.06 in 10.0 mi Calm Calm - N/A   Clear
10:53 PM 59.0 °F 57.0 °F 93% 30.06 in 10.0 mi Calm Calm - N/A   Clear
11:53 PM 59.0 °F 57.0 °F 93% 30.06 in 10.0 mi Calm Calm - N/A   Scattered Clouds